Findlay, OH

8:22 AM EDT on May 20, 2018 (GMT -0400)
Findlay

Weather History for KFDY - December, 2012

Change the Weather History Date:

Sunday, December 16, 2012

  Actual Average Record
Temperature  
Mean Temperature 51 °F -  
Max Temperature 57 °F 35 °F 61 °F (1984)
Min Temperature 45 °F 24 °F -10 °F (1951)
Degree Days  
Heating Degree Days 14    
Growing Degree Days 1 (Base 50)    
Moisture  
Dew Point 47 °F    
Average Humidity 85    
Maximum Humidity 90    
Minimum Humidity 72    
Precipitation  
Precipitation 0.00 in - - ()
Sea Level Pressure  
Sea Level Pressure 29.66 in    
Wind  
Wind Speed 10 mph (SW)    
Max Wind Speed 18 mph    
Max Gust Speed 25 mph    
Visibility 10 miles    
Events      
Averages and records for this station are not official NWS values.
T = Trace of Precipitation, MM = Missing Value Source: NWS Daily Summary

Daily Weather History Graph

Daily Weather History Graph

Search for Another Location

Airport or City:

Astronomy

Dec. 16, 2012 Rise Set
Actual Time 7:53 AM EST 5:07 PM EST
Civil Twilight 7:22 AM EST 5:38 PM EST
Nautical Twilight 6:47 AM EST 6:13 PM EST
Astronomical Twilight 6:14 AM EST 6:46 PM EST
Moon 10:24 AM EST (12/16) 9:22 PM EST (12/16)
Length of Visible Light 10h 16m
Length of Day
9h 14m
Waxing Crescent, 16% of the Moon is Illuminated
Dec 16
Waxing Crescent
Dec 20
First Quarter
Dec 28
Full
Jan 4
Last Quarter
Jan 11
New

Hourly Weather History & Observations

Time (EST) Temp. Windchill Dew Point Humidity Pressure Visibility Wind Dir Wind Speed Gust Speed Precip Events Conditions
12:53 AM 50.0 °F - 45.0 °F 83% 29.71 in 10.0 mi South 10.4 mph - N/A   Overcast
1:53 AM 50.0 °F - 46.0 °F 86% 29.70 in 10.0 mi South 11.5 mph - N/A   Overcast
2:53 AM 50.0 °F - 46.9 °F 89% 29.69 in 10.0 mi South 8.1 mph - N/A   Overcast
3:53 AM 51.1 °F - 48.0 °F 89% 29.69 in 10.0 mi SSW 13.8 mph - N/A   Overcast
4:53 AM 51.1 °F - 46.9 °F 86% 29.68 in 10.0 mi South 13.8 mph - N/A   Overcast
5:53 AM 50.0 °F - 46.9 °F 89% 29.68 in 10.0 mi South 11.5 mph - N/A   Mostly Cloudy
6:53 AM 51.1 °F - 48.0 °F 89% 29.67 in 10.0 mi South 18.4 mph - N/A   Overcast
7:53 AM 52.0 °F - 48.0 °F 86% 29.68 in 10.0 mi South 12.7 mph - N/A   Overcast
8:53 AM 52.0 °F - 48.0 °F 86% 29.68 in 10.0 mi South 15.0 mph - N/A   Overcast
9:53 AM 54.0 °F - 50.0 °F 86% 29.68 in 10.0 mi SSW 13.8 mph - N/A   Clear
10:53 AM 54.0 °F - 48.9 °F 83% 29.68 in 10.0 mi SW 12.7 mph - N/A   Clear
11:53 AM 55.0 °F - 48.9 °F 80% 29.67 in 10.0 mi SW 17.3 mph 25.3 mph N/A   Mostly Cloudy
12:53 PM 55.9 °F - 48.0 °F 75% 29.65 in 10.0 mi SW 12.7 mph 23.0 mph N/A   Mostly Cloudy
1:53 PM 55.9 °F - 48.9 °F 77% 29.62 in 10.0 mi WSW 8.1 mph - N/A   Overcast
2:53 PM 57.0 °F - 48.9 °F 74% 29.61 in 10.0 mi WSW 8.1 mph - N/A   Overcast
3:53 PM 55.0 °F - 46.0 °F 72% 29.62 in 10.0 mi SW 6.9 mph - N/A   Scattered Clouds
4:53 PM 53.1 °F - 48.0 °F 83% 29.63 in 10.0 mi West 4.6 mph - N/A   Overcast
5:44 PM 51.8 °F - 46.4 °F 82% 29.64 in 10.0 mi WSW 4.6 mph - N/A   Mostly Cloudy
5:53 PM 52.0 °F - 46.9 °F 83% 29.63 in 10.0 mi SW 4.6 mph - N/A   Overcast
6:16 PM 50.0 °F - 46.4 °F 87% 29.63 in 9.0 mi SW 3.5 mph - N/A   Overcast
6:45 PM 51.8 °F - 46.4 °F 82% 29.64 in 9.0 mi WSW 4.6 mph - N/A   Mostly Cloudy
6:53 PM 50.0 °F - 46.0 °F 86% 29.64 in 9.0 mi WSW 6.9 mph - N/A   Mostly Cloudy
7:04 PM 50.0 °F - 46.4 °F 87% 29.65 in 9.0 mi WSW 6.9 mph - N/A   Mostly Cloudy
7:53 PM 48.0 °F - 45.0 °F 89% 29.66 in 8.0 mi West 6.9 mph - N/A   Scattered Clouds
8:53 PM 45.0 °F 41.8 °F 42.1 °F 90% 29.65 in 8.0 mi WSW 5.8 mph - N/A   Clear
9:16 PM 46.4 °F 43.5 °F 42.8 °F 87% 29.67 in 8.0 mi WSW 5.8 mph - N/A   Mostly Cloudy
9:53 PM 46.0 °F 42.5 °F 43.0 °F 89% 29.68 in 9.0 mi WSW 6.9 mph - N/A   Mostly Cloudy
10:53 PM 46.0 °F 41.4 °F 43.0 °F 89% 29.71 in 9.0 mi WSW 9.2 mph - N/A   Overcast
11:53 PM 46.0 °F 41.9 °F 43.0 °F 89% 29.70 in 8.0 mi West 8.1 mph - N/A   Overcast